Location: Grieser Field
(39.7333°N, 81.7975°W)
Time: 18:39:56
(UTC-04:00)

Hubble Space Telescope - Visible Passes

Search period start: 30 July 2016 00:00
Search period end: 09 August 2016 00:00
Orbit: 539 x 543 km, 28.5° (Epoch: 29 July)

Date Brightness Start Highest point End Pass type
(mag) Time Alt. Az. Time Alt. Az. Time Alt. Az.
02 Aug 3.0 05:56:33 10° SSW 05:58:31 13° SSE 06:00:30 10° SE visible
03 Aug 2.9 05:46:21 10° SSW 05:48:39 15° S 05:50:57 10° SE visible
04 Aug 2.7 05:36:23 10° SSW 05:38:48 16° S 05:41:19 10° SE visible
05 Aug 2.6 05:27:09 13° SSW 05:28:57 16° S 05:31:37 10° SE visible
06 Aug 2.5 05:17:58 15° SSW 05:19:07 17° S 05:21:50 10° SE visible
07 Aug 2.5 05:08:50 17° S 05:09:17 17° S 05:12:00 10° SE visible
08 Aug 2.6 04:59:47 17° S 04:59:47 17° S 05:02:07 10° SE visible
